DELTA 1 DEB, 10763

Orbit data source: Space-Track

DELTA 1 DEB, 10763 is space debris in SSO originally from a launch on Thu, 29 Jul 1976 UTC launched from the Air Force Western Test Range (AFWTR). Debris objects in space refer to the collection of defunct objects orbiting the Earth. Examples of debris include non-operational satellites, rocket bodies, and fragments generated from explosions, collisions, or faulty payload assembly.

Loading next visibility...
Identifier
10763, 1976-077BL
Orbit
SSO
Country
Flag of USUS
Related business
Manufacturer
Unknown
Mission
Spacecraft
Bus & Motor
Unknown
Mass
Unknown
Launch date (UTC)
1976-07-29 (50 years ago)
Launch vehicle
Unknown
Launch site
Air Force Western Test Range (AFWTR)
Object type
Payload
Rocket body
Debris
Shape & HBR
Unknown shape, 0.1 m
Radar Cross Section
Small (<0.1 m²)

Expand to show TLE details & history
Last TLE update: 22 hours ago

TLE from 22 hours ago
0 DELTA 1 DEB
1 10763U 76077BL  26118.37138367  .00000011  00000-0  45389-3 0  9994
2 10763 102.2421  87.9431 0046754 116.8941  39.9088 12.33857970240333
Epoch: 2026-04-28T08:54Z
TLE epoch observation values (Epoch: 2026-04-28T08:54:47.549Z)
Latitude
22.32051°
Longitude
-77.01708°
Altitude
1,506.816 km
Speed
7.126 km/s
True Right ascension
18h 12m 06s
True Declination
22° 12' 41"
Sunlit
Object was in daylight at epoch
Visualization orbit readout
Latitude
Unknown
Longitude
Unknown
Altitude
Unknown
Speed
Unknown
Apparent Right ascension
Unknown
Apparent Declination
Unknown
Sunlit
N/A
Visualization observer readout
Local Sidereal Time
14:44:40
Azimuth
Unknown
Elevation
Unknown
Doppler factor
Unknown
Orbital elements
Apogee altitude
1,567.32 km
Perigee altitude
1,493.37 km
Semi-major axis
7,908.482 km
Eccentricity
0.00468
Inclination
102.2421°
RAAN
87.9431°
Arg. of periapsis
116.8941°
True anomaly
40.25407°
Mean anomaly
39.9088°
Eccentric anomaly
40.08128°
Mean motion
3.08605 °/min
Orbital period
116.65 mins
BSTAR
0.00045389
Loading maneuver chart data...
Computing Atmospheric mass density...
Loading historical data...
Loading historical data...
Loading historical data...
Loading historical data...
Loading historical data...
Loading historical data...
Loading historical data...

Documentation

Showing up to 5 results
|